Temperature
-7 -8 -8 -8 -9 -9 -10 -10 -11 -11 -11 -10 -10 -9 -9 -10 -10 -10 -9 -9 -9 -8 -7 -7 -6 -6 -5 -4 -3 -2 -1 -0 1 2 4 5 7 8
-7 -8 -8 -8 -9 -9 -9 -10 -10 -11 -11 -10 -10 -9 -10 -10 -10 -10 -9 -9 -9 -8 -7 -7 -6 -6 -5 -5 -4 -3 -2 -1 0 1 3 4 6 7
-7 -8 -8 -8 -9 -9 -9 -10 -10 -11 -11 -11 -10 -10 -10 -10 -10 -10 -10 -9 -9 -8 -8 -7 -7 -6 -6 -5 -4 -3 -2 -1 -0 1 2 4 5 7
-7 -8 -8 -8 -9 -9 -9 -9 -10 -10 -11 -11 -10 -10 -10 -10 -10 -10 -10 -9 -9 -8 -8 -8 -7 -7 -6 -5 -4 -4 -3 -2 -1 0 2 3 4 6
-7 -8 -8 -8 -9 -9 -9 -9 -9 -10 -10 -10 -10 -10 -10 -10 -10 -10 -10 -10 -9 -9 -8 -8 -7 -7 -6 -5 -5 -4 -3 -2 -1 0 1 2 3 5
-7 -8 -8 -8 -9 -9 -9 -9 -9 -9 -10 -10 -10 -10 -10 -10 -11 -11 -11 -10 -9 -9 -9 -8 -8 -7 -6 -5 -4 -4 -3 -2 -1 -0 1 1 3 4
-7 -8 -8 -9 -9 -9 -9 -9 -9 -9 -9 -10 -10 -11 -11 -11 -11 -11 -11 -11 -10 -9 -9 -8 -8 -7 -6 -5 -4 -4 -3 -2 -2 -1 0 1 2 4
-7 -8 -8 -9 -9 -9 -9 -9 -9 -9 -9 -10 -10 -11 -11 -11 -11 -12 -12 -12 -11 -10 -10 -8 -8 -7 -6 -5 -5 -4 -3 -3 -2 -1 0 1 2 3
-8 -8 -9 -9 -9 -9 -9 -9 -9 -9 -10 -10 -10 -10 -11 -11 -11 -12 -12 -12 -12 -11 -11 -9 -8 -7 -7 -6 -5 -4 -3 -3 -2 -1 -0 1 2 3
-8 -8 -9 -9 -9 -9 -9 -9 -9 -9 -10 -10 -10 -11 -11 -11 -11 -12 -12 -12 -11 -11 -11 -11 -9 -8 -7 -6 -5 -4 -3 -2 -2 -1 -0 1 2 3
-8 -8 -9 -9 -9 -9 -9 -9 -9 -9 -10 -10 -10 -11 -11 -11 -11 -12 -12 -12 -12 -11 -11 -11 -10 -9 -7 -5 -5 -4 -4 -3 -2 -1 -0 1 2 3
-8 -8 -9 -9 -9 -9 -9 -9 -10 -10 -10 -10 -10 -10 -11 -11 -11 -12 -12 -13 -13 -12 -11 -11 -11 -10 -8 -6 -5 -5 -4 -3 -2 -1 -0 0 1 2
-8 -8 -9 -9 -9 -9 -9 -10 -10 -10 -10 -10 -11 -11 -11 -11 -11 -12 -12 -13 -13 -12 -12 -12 -11 -11 -11 -9 -5 -4 -4 -3 -2 -1 -0 1 1 2
-8 -9 -9 -9 -10 -10 -10 -10 -10 -10 -10 -11 -11 -11 -11 -11 -12 -12 -12 -12 -12 -12 -11 -12 -12 -11 -11 -11 -8 -5 -4 -3 -2 -1 -0 1 1 2
-9 -9 -9 -10 -10 -10 -10 -11 -11 -11 -11 -11 -11 -12 -12 -12 -12 -12 -12 -12 -11 -11 -11 -11 -12 -11 -11 -11 -9 -6 -5 -3 -3 -2 -1 0 1 2
-9 -9 -9 -10 -10 -10 -10 -10 -11 -11 -12 -12 -12 -12 -12 -12 -12 -12 -12 -12 -11 -11 -11 -11 -11 -11 -11 -10 -9 -7 -5 -4 -2 -2 -1 0 1 2
-9 -9 -9 -10 -10 -10 -10 -11 -11 -11 -11 -12 -12 -12 -12 -12 -12 -12 -12 -12 -12 -12 -11 -10 -10 -10 -10 -9 -8 -6 -5 -4 -3 -2 -1 0 1 3
-9 -9 -10 -10 -10 -11 -11 -11 -11 -11 -12 -12 -12 -12 -12 -12 -12 -12 -12 -12 -12 -12 -11 -10 -10 -10 -9 -8 -7 -6 -4 -3 -2 -2 -1 0 1 3
-9 -10 -10 -10 -11 -11 -11 -11 -11 -12 -12 -12 -12 -12 -12 -12 -12 -12 -12 -12 -12 -12 -11 -11 -10 -10 -10 -9 -6 -5 -4 -3 -3 -2 -1 0 2 3
-9 -10 -10 -10 -11 -11 -11 -11 -12 -12 -12 -12 -12 -12 -12 -13 -12 -12 -12 -12 -12 -11 -11 -10 -10 -10 -10 -9 -7 -5 -4 -4 -3 -2 -0 1 2 3
-9 -10 -10 -11 -11 -11 -11 -12 -12 -12 -12 -12 -12 -12 -12 -12 -12 -12 -12 -12 -12 -11 -11 -10 -9 -9 -9 -8 -7 -5 -4 -3 -3 -2 -0 1 2 3
-9 -10 -10 -10 -11 -11 -11 -12 -12 -12 -12 -12 -12 -12 -12 -12 -12 -12 -12 -12 -11 -11 -10 -9 -8 -8 -8 -8 -7 -5 -4 -3 -2 -1 -0 1 2 3
-9 -9 -10 -10 -11 -11 -11 -12 -12 -12 -12 -12 -12 -12 -12 -12 -12 -12 -12 -11 -11 -11 -10 -9 -8 -8 -7 -7 -6 -5 -4 -3 -2 -1 0 1 3 4
Wind_Speed
11 11 11 10 10 10 11 11 11 15 18 13 7 7 10 14 20 19 18 25 28 28 27 26 26 25 26 26 25 25 24 23 23 21 21 21 21 19
10 11 12 10 10 10 11 11 12 13 16 12 11 10 10 15 22 19 19 26 26 26 26 26 26 25 26 26 25 24 24 24 23 22 22 21 21 19
11 12 14 12 11 10 10 11 12 12 16 17 13 11 10 12 14 15 17 17 18 25 26 26 25 25 25 24 24 24 24 24 23 22 22 22 21 20
13 12 14 12 12 11 11 13 13 13 14 19 16 11 11 11 11 12 12 15 14 22 25 25 24 23 24 24 24 24 24 24 23 22 22 21 21 20
13 13 14 13 14 13 13 13 13 14 13 15 16 12 10 9 10 12 13 10 13 17 21 21 21 22 23 23 24 24 24 23 23 22 21 21 20 20
14 14 14 14 15 15 14 15 14 15 13 13 14 13 10 8 7 10 12 9 11 13 15 15 19 22 22 22 23 23 23 23 23 22 22 20 19 19
14 14 14 17 20 18 15 13 13 12 11 12 12 12 11 9 8 8 11 11 10 9 8 10 11 10 12 17 19 20 20 21 22 23 23 21 19 19
13 12 13 16 20 24 26 25 21 15 12 11 11 11 12 10 9 9 10 11 9 4 7 12 9 10 10 9 16 20 20 21 22 23 22 21 20 19
10 10 11 12 17 12 19 24 21 24 21 14 12 12 11 10 10 11 10 11 12 8 9 12 9 10 9 11 19 20 21 22 22 22 22 21 20 19
10 10 11 12 13 15 14 13 13 13 16 12 10 11 11 11 10 11 11 11 11 9 7 8 8 8 10 9 18 19 20 21 22 22 22 21 20 19
10 10 11 11 19 23 15 12 12 11 15 18 18 16 18 18 14 8 7 9 10 7 5 5 6 8 9 8 10 14 15 17 18 20 21 21 20 18
8 9 15 16 20 22 12 9 11 10 8 9 10 12 10 12 16 7 6 8 8 6 3 3 4 4 6 4 5 6 8 12 15 17 19 19 18 12
8 7 8 17 20 20 16 8 12 11 5 6 7 7 7 6 7 7 7 7 9 8 5 3 4 4 5 6 5 6 5 6 7 10 14 18 19 15
8 6 8 17 18 18 14 14 17 11 4 5 6 7 7 7 7 7 8 9 10 12 10 8 7 6 7 8 7 6 6 6 6 7 7 12 16 18
6 11 14 16 15 10 13 16 12 6 5 6 7 7 7 7 7 7 7 8 9 10 11 11 11 10 10 10 8 7 5 5 6 6 6 7 8 9
7 9 12 12 10 10 11 9 6 6 7 7 7 7 6 6 7 6 7 7 7 7 8 10 11 12 12 12 12 11 8 6 5 5 6 7 7 9
4 2 2 4 5 5 5 6 5 6 7 6 7 7 7 8 8 6 6 6 6 7 7 6 8 10 13 12 11 12 11 10 10 8 7 7 8 9
4 2 3 4 5 6 6 6 6 6 6 6 7 7 7 8 8 7 7 7 8 8 8 7 5 5 5 8 15 12 10 9 8 8 7 7 8 8
3 3 4 5 5 5 6 6 7 7 6 6 7 7 7 8 8 8 7 7 8 8 8 6 6 5 5 5 5 11 10 8 7 7 7 7 7 7
3 4 5 5 5 5 6 6 6 7 6 6 6 7 7 7 8 8 8 8 9 9 8 6 6 6 7 6 5 5 10 9 7 7 6 5 5 6
4 4 4 5 5 5 6 6 6 7 7 6 7 7 7 7 8 8 8 12 10 8 9 8 8 11 7 5 6 6 6 12 12 7 5 5 6 6
4 5 4 5 5 5 5 6 6 7 7 6 7 7 6 7 8 9 8 8 8 8 9 9 8 7 5 6 8 8 7 5 9 14 14 10 5 7
5 4 4 4 4 4 5 6 7 7 6 6 6 7 7 7 7 7 8 8 8 9 9 8 7 5 5 6 7 7 7 6 4 5 7 12 16 13
Wind_Direction
247 248 249 253 250 250 253 255 268 287 292 291 286 269 275 283 291 296 294 296 298 296 293 291 288 285 282 280 279 279 280 281 283 284 285 286 288 293
248 249 251 254 254 253 253 253 252 263 278 284 284 284 284 290 294 296 294 298 299 296 293 289 286 283 280 276 275 275 274 275 276 278 279 282 284 289
251 251 254 254 257 257 255 255 255 255 268 280 281 282 276 280 288 288 290 289 290 293 292 289 285 282 278 274 272 272 271 272 273 272 274 276 281 285
253 253 257 259 256 257 258 257 257 255 260 275 282 282 277 278 281 286 292 293 288 290 291 289 285 283 279 275 270 268 268 268 270 271 272 272 276 282
251 253 257 257 261 261 260 262 261 261 257 265 277 279 277 277 282 288 287 283 287 292 294 290 287 286 283 274 270 266 265 264 265 267 270 270 273 277
252 253 255 254 258 262 265 262 263 264 262 263 270 276 276 273 276 288 294 290 291 294 290 291 292 291 285 277 270 264 262 262 263 263 265 265 266 271
254 253 254 260 263 269 271 269 267 267 268 267 270 275 277 281 280 282 289 296 291 281 290 292 291 286 283 279 273 267 263 260 259 259 260 261 261 264
257 256 258 267 274 281 285 288 287 283 276 273 275 274 275 274 276 279 285 292 293 279 295 295 287 281 277 269 270 267 262 260 258 256 256 256 256 258
252 259 269 271 281 279 283 287 288 288 286 280 274 269 271 269 271 277 275 276 278 282 291 288 280 278 276 274 276 269 263 259 256 253 252 253 253 254
249 253 262 268 273 278 275 273 270 270 274 276 264 265 267 266 259 263 271 277 276 271 265 274 281 281 283 277 277 268 260 255 251 249 248 249 249 249
256 257 261 263 278 288 287 280 280 276 279 281 281 280 281 285 286 283 281 284 286 281 249 257 282 293 286 273 270 273 269 260 253 248 245 244 243 243
260 260 272 278 286 293 290 281 284 285 278 285 290 292 292 293 295 285 267 272 276 279 251 262 276 301 299 278 272 280 274 266 259 251 245 241 239 236
265 262 262 284 293 297 300 286 287 298 283 273 275 278 281 277 274 264 247 246 255 255 253 261 269 269 273 291 296 283 273 274 269 256 247 239 234 227
262 264 269 289 296 302 306 303 306 314 300 284 282 282 282 281 278 271 260 250 245 251 254 248 256 258 266 277 277 285 287 273 260 252 245 240 233 227
261 277 287 296 305 309 307 307 311 308 294 290 286 283 280 277 282 283 276 266 261 254 253 244 245 253 252 257 264 275 292 283 268 256 246 236 226 214
275 282 290 299 303 301 305 308 302 288 288 286 287 287 287 288 286 284 288 291 286 275 253 245 244 246 251 252 256 263 262 262 272 272 269 255 235 217
257 248 271 293 296 296 296 295 291 293 296 289 290 293 294 295 293 290 285 285 279 284 288 270 249 245 245 246 249 251 253 255 254 257 256 248 233 218
261 255 271 279 285 290 297 300 299 297 294 292 293 292 294 295 296 294 288 284 284 284 284 284 283 274 251 244 232 243 247 249 249 244 240 235 228 214
245 256 266 272 278 284 287 290 294 295 294 293 293 294 294 294 295 295 294 291 288 286 283 278 272 260 261 265 260 229 232 242 243 240 231 222 221 211
227 248 259 266 272 279 285 289 292 296 295 294 292 292 293 295 295 294 293 291 292 292 290 278 262 251 245 255 270 264 237 238 238 234 228 226 229 224
237 247 254 262 269 276 282 287 290 292 292 292 293 291 291 293 293 293 293 296 296 293 291 286 274 274 267 254 257 260 253 236 231 230 215 208 198 190
234 244 253 259 266 272 280 286 290 292 292 290 292 293 292 290 292 293 295 296 294 290 288 287 284 277 250 242 251 261 268 256 240 242 243 236 200 184
229 238 248 258 263 270 274 280 285 290 290 289 292 294 294 295 293 292 294 295 295 296 298 298 294 276 256 246 252 261 266 262 243 224 233 236 233 239
Height
1457 1455 1452 1449 1447 1443 1440 1436 1431 1421 1411 1407 1405 1402 1400 1396 1391 1387 1383 1379 1376 1373 1371 1369 1368 1368 1368 1368 1369 1371 1373 1375 1377 1380 1384 1388 1392 1396
1449 1446 1444 1441 1438 1435 1432 1428 1424 1418 1407 1400 1397 1394 1392 1388 1385 1381 1376 1372 1368 1366 1364 1362 1361 1361 1361 1361 1362 1364 1366 1368 1371 1373 1377 1381 1385 1389
1441 1438 1435 1434 1430 1427 1424 1420 1415 1411 1402 1393 1391 1387 1384 1380 1376 1373 1369 1365 1361 1358 1356 1354 1354 1353 1353 1354 1355 1356 1359 1361 1364 1367 1370 1374 1378 1382
1432 1430 1427 1425 1422 1419 1415 1411 1406 1402 1397 1388 1382 1380 1376 1373 1369 1365 1361 1358 1354 1350 1348 1346 1345 1345 1345 1346 1347 1348 1351 1353 1356 1359 1363 1367 1371 1375
1424 1421 1419 1417 1413 1410 1406 1402 1397 1393 1389 1382 1375 1372 1369 1366 1362 1357 1354 1350 1347 1343 1340 1338 1337 1336 1337 1337 1339 1341 1343 1346 1348 1352 1355 1360 1364 1368
1416 1413 1411 1408 1404 1401 1397 1393 1389 1385 1380 1375 1369 1365 1361 1358 1355 1351 1345 1342 1339 1336 1333 1331 1330 1328 1328 1329 1330 1332 1335 1337 1340 1344 1348 1352 1357 1362
1407 1405 1402 1399 1396 1393 1389 1385 1381 1377 1372 1367 1362 1358 1354 1352 1348 1345 1340 1335 1331 1329 1326 1324 1323 1321 1320 1321 1322 1324 1326 1329 1333 1337 1341 1345 1350 1355
1399 1397 1394 1391 1388 1385 1382 1379 1375 1371 1365 1361 1356 1352 1348 1345 1342 1339 1335 1331 1325 1323 1321 1317 1316 1314 1313 1314 1314 1316 1319 1322 1326 1330 1334 1339 1344 1349
1391 1389 1386 1382 1380 1376 1372 1369 1366 1363 1360 1355 1349 1345 1342 1339 1336 1332 1329 1325 1321 1318 1316 1309 1309 1307 1306 1306 1307 1308 1311 1314 1318 1323 1327 1332 1337 1343
1384 1381 1378 1374 1371 1368 1364 1360 1356 1353 1350 1347 1343 1338 1335 1332 1330 1326 1323 1318 1314 1312 1311 1305 1302 1300 1299 1298 1299 1301 1304 1307 1311 1315 1320 1325 1331 1337
1376 1374 1371 1367 1364 1361 1358 1353 1349 1345 1342 1339 1336 1332 1329 1326 1323 1320 1316 1313 1307 1304 1304 1301 1297 1294 1292 1291 1292 1294 1296 1299 1303 1308 1312 1318 1324 1330
1369 1366 1364 1361 1358 1355 1351 1347 1342 1338 1334 1330 1328 1324 1322 1319 1316 1313 1310 1307 1303 1299 1298 1297 1294 1292 1288 1285 1286 1288 1289 1292 1296 1301 1305 1311 1317 1323
1361 1359 1357 1354 1351 1348 1345 1341 1337 1333 1328 1324 1320 1317 1314 1312 1309 1306 1304 1301 1298 1294 1294 1293 1290 1289 1288 1282 1280 1282 1283 1286 1289 1293 1298 1304 1310 1316
1355 1353 1350 1348 1345 1342 1339 1335 1332 1328 1323 1319 1315 1311 1308 1305 1302 1300 1297 1294 1291 1288 1287 1287 1285 1284 1282 1279 1276 1276 1278 1280 1283 1287 1292 1298 1303 1309
1349 1347 1344 1342 1339 1335 1332 1329 1326 1322 1318 1314 1310 1306 1303 1299 1296 1293 1290 1287 1284 1282 1280 1279 1278 1277 1277 1275 1272 1271 1272 1275 1278 1281 1286 1291 1297 1303
1343 1341 1339 1336 1333 1330 1327 1324 1320 1317 1313 1309 1305 1301 1298 1294 1291 1288 1284 1280 1277 1275 1275 1273 1272 1271 1269 1268 1267 1266 1268 1269 1272 1276 1280 1285 1290 1296
1338 1335 1333 1330 1327 1325 1322 1319 1316 1312 1309 1305 1301 1297 1293 1290 1286 1283 1279 1276 1272 1269 1267 1267 1265 1264 1263 1262 1261 1260 1262 1264 1267 1271 1275 1279 1283 1289
1333 1330 1328 1325 1323 1320 1317 1314 1311 1308 1304 1301 1297 1293 1289 1285 1282 1278 1275 1271 1268 1264 1262 1260 1259 1258 1257 1256 1255 1255 1256 1259 1262 1266 1269 1273 1278 1284
1327 1325 1323 1321 1318 1316 1313 1311 1307 1304 1301 1297 1293 1290 1286 1282 1278 1274 1270 1267 1263 1260 1257 1256 1254 1253 1252 1250 1249 1251 1251 1254 1257 1260 1264 1268 1273 1280
1322 1320 1318 1316 1314 1312 1310 1307 1304 1301 1297 1294 1290 1286 1282 1278 1274 1270 1266 1263 1259 1255 1252 1251 1250 1249 1248 1247 1246 1246 1248 1249 1252 1255 1259 1264 1270 1277
1318 1316 1314 1312 1310 1308 1306 1303 1300 1297 1294 1290 1287 1283 1279 1275 1271 1267 1263 1259 1256 1252 1248 1246 1245 1245 1244 1243 1242 1240 1242 1244 1247 1250 1256 1260 1266 1272
1313 1312 1310 1308 1306 1304 1302 1299 1297 1294 1290 1287 1283 1280 1276 1272 1268 1263 1259 1255 1251 1248 1245 1242 1241 1240 1239 1237 1236 1236 1237 1240 1242 1246 1251 1256 1260 1267
1309 1308 1306 1304 1302 1300 1298 1296 1293 1290 1287 1284 1280 1277 1273 1269 1265 1260 1256 1252 1248 1244 1241 1238 1236 1235 1234 1233 1232 1232 1233 1235 1238 1242 1246 1251 1257 1264